Stations météo

réclame
Mon MeteoGroup
Alghero, Italie (16520): Température de l'air & dewpoint: 08.08.2018 23:00:00 - 14.08.2018 23:00:00 (CEST)Alghero, Italie (16520): Vitesse du vent: 08.08.2018 23:00:00 - 14.08.2018 23:00:00 (CEST)Alghero, Italie (16520): Direction du vent: 08.08.2018 23:00:00 - 14.08.2018 23:00:00 (CEST)Alghero, Italie (16520): reduced air pressure: 08.08.2018 23:00:00 - 14.08.2018 23:00:00 (CEST)Alghero, Italie (16520): visibility: 08.08.2018 23:00:00 - 14.08.2018 23:00:00 (CEST)Alghero, Italie (16520): Quantités de précipitations: 08.08.2018 23:00:00 - 14.08.2018 23:00:00 (CEST)
Date & Time tt [°C] td [°C] ff [km/h] ff [knt] dd ppp [hPa] vv [km] rr [mm]
14.08.2018 23:00:00 24,4 17,8 9 5 W 1013,9 10 0,0
14.08.2018 22:00:00 25,0 19,0 5 3 W - 10 -
14.08.2018 21:00:00 25,0 20,0 8 4 WNW - 10 -
14.08.2018 20:00:00 26,1 19,8 11 6 WNW 1014,1 10 -
14.08.2018 19:00:00 28,0 19,0 13 7 WNW - 10 -
14.08.2018 18:00:00 28,0 20,0 15 8 W - 10 -
14.08.2018 17:00:00 28,2 20,1 22 12 NW 1014,0 - 0,0
14.08.2018 16:00:00 29,0 20,0 16 9 W - 10 -
14.08.2018 15:00:00 30,0 20,0 16 9 W - 10 -
14.08.2018 14:00:00 29,4 19,7 15 8 NW 1013,7 10 -
14.08.2018 13:00:00 28,0 21,0 11 6 WNW - 10 -
14.08.2018 12:00:00 27,0 22,0 - - - - 3,2 -
14.08.2018 11:00:00 28,2 21,5 5 3 WNW 1014,0 10 0,0
14.08.2018 10:00:00 27,0 23,0 4 2 - - 10 -
14.08.2018 09:00:00 23,0 21,0 4 2 - - 10 -
14.08.2018 08:00:00 21,9 21,0 4 2 - 1013,6 10 -
14.08.2018 07:00:00 20,0 19,0 4 2 NNE - 10 -
14.08.2018 06:00:00 20,0 20,0 2 1 NE - 10 -
14.08.2018 05:00:00 20,5 20,0 4 2 W 1013,0 10 0,0
14.08.2018 04:00:00 21,0 20,0 2 1 - - 10 -
14.08.2018 03:00:00 21,0 21,0 4 2 - - 10 -
14.08.2018 02:00:00 21,5 20,9 2 1 - 1013,6 10 -
14.08.2018 01:00:00 23,0 21,0 4 2 - - 10 -
14.08.2018 00:00:00 24,0 22,0 4 2 - - 10 -
13.08.2018 23:00:00 23,8 21,8 4 2 - 1013,5 10 0,0
13.08.2018 22:00:00 26,0 22,0 4 2 - - 10 -
13.08.2018 21:00:00 27,0 21,0 8 4 N - 10 -
13.08.2018 20:00:00 28,3 20,9 9 5 NNE 1012,7 10 -
13.08.2018 19:00:00 30,0 21,0 5 3 NNW - 10 -
13.08.2018 18:00:00 29,0 20,0 11 6 WNW - 10 -
13.08.2018 17:00:00 30,4 20,1 4 2 - 1012,9 10 0,0
13.08.2018 16:00:00 30,0 20,0 11 6 WNW - 10 -
13.08.2018 15:00:00 31,0 21,0 13 7 W - 10 -
13.08.2018 14:00:00 32,1 16,8 8 4 WNW 1013,9 10 -
13.08.2018 13:00:00 31,0 21,0 13 7 WNW - 10 -
13.08.2018 12:00:00 30,0 20,0 9 5 WNW - 10 -
13.08.2018 11:00:00 30,4 19,5 5 3 - 1014,7 10 0,0
13.08.2018 10:00:00 28,0 20,0 4 2 - - 10 -
13.08.2018 09:00:00 25,0 20,0 2 1 - - 10 -
13.08.2018 08:00:00 21,3 19,6 5 3 NNE 1014,3 10 -
13.08.2018 07:00:00 - - - - - - - -
13.08.2018 06:00:00 20,0 19,0 2 1 - - 10 -
13.08.2018 05:00:00 19,9 19,0 2 1 NNW 1014,3 10 0,0
13.08.2018 04:00:00 21,0 19,0 4 2 - - 10 -
13.08.2018 03:00:00 21,0 19,0 2 1 - - 10 -
13.08.2018 02:00:00 21,7 20,1 4 2 NNE 1015,0 10 -
13.08.2018 01:00:00 22,0 20,0 5 3 N - 10 -
13.08.2018 00:00:00 23,0 20,0 5 3 N - 10 -
12.08.2018 23:00:00 23,2 20,1 4 2 N 1016,0 10 0,0
12.08.2018 22:00:00 25,0 20,0 5 3 NNE - 10 -
12.08.2018 21:00:00 26,0 20,0 9 5 N - 10 -
12.08.2018 20:00:00 28,2 18,9 9 5 N 1015,4 10 -
12.08.2018 19:00:00 30,0 20,0 13 7 NNW - 10 -
12.08.2018 18:00:00 31,0 19,0 13 7 NW - 10 -
12.08.2018 17:00:00 31,2 18,0 15 8 W 1016,6 10 0,0
12.08.2018 16:00:00 31,0 18,0 13 7 W - 10 -
12.08.2018 15:00:00 31,0 18,0 15 8 WNW - 10 -
12.08.2018 14:00:00 30,7 16,9 15 8 W 1017,7 10 -
12.08.2018 13:00:00 30,0 20,0 15 8 W - 10 -
12.08.2018 12:00:00 30,0 21,0 11 6 WNW - 10 -
12.08.2018 11:00:00 28,5 19,9 4 2 - 1018,3 10 0,0
12.08.2018 10:00:00 27,0 21,0 5 3 E - 10 -
12.08.2018 09:00:00 24,0 21,0 2 1 - - 10 -
12.08.2018 08:00:00 21,2 19,7 2 1 - 1018,4 10 -
12.08.2018 07:00:00 19,0 18,0 2 1 - - 10 -
12.08.2018 06:00:00 19,0 18,0 5 3 NE - 10 -
12.08.2018 05:00:00 19,5 18,8 4 2 ENE 1017,9 10 0,0
12.08.2018 04:00:00 20,0 20,0 2 1 WNW - 10 -
12.08.2018 03:00:00 21,0 19,0 4 2 NE - 10 -
12.08.2018 02:00:00 22,0 20,0 4 2 NE - 10 -
12.08.2018 01:00:00 22,0 20,0 2 1 - - 10 -
12.08.2018 00:00:00 23,0 20,0 4 2 NNE - 10 -
11.08.2018 23:00:00 23,6 20,3 4 2 N 1019,4 10 0,0
11.08.2018 22:00:00 25,0 20,0 5 3 NNW - 10 -
11.08.2018 21:00:00 26,0 20,0 5 3 NNW - 10 -
11.08.2018 20:00:00 28,2 19,0 8 4 NW 1018,7 10 -
11.08.2018 19:00:00 30,0 19,0 11 6 NW - 10 -
11.08.2018 18:00:00 31,0 18,0 13 7 WNW - 10 -
11.08.2018 17:00:00 31,5 19,4 15 8 W 1019,3 10 0,0
11.08.2018 16:00:00 31,0 20,0 15 8 W - 10 -
11.08.2018 15:00:00 32,0 21,0 15 8 W - 10 -
11.08.2018 14:00:00 31,9 19,8 16 9 W 1020,2 10 -
11.08.2018 13:00:00 31,0 21,0 16 9 W - 10 -
11.08.2018 12:00:00 31,0 21,0 11 6 W - 10 -
11.08.2018 11:00:00 30,4 20,3 5 3 - 1020,9 10 0,0
11.08.2018 10:00:00 28,0 21,0 5 3 NNE - 10 -
11.08.2018 09:00:00 25,0 22,0 2 1 - - 10 -
11.08.2018 08:00:00 22,8 21,7 4 2 - 1020,8 10 -
11.08.2018 07:00:00 21,0 21,0 5 3 N - 10 -
11.08.2018 06:00:00 21,0 21,0 2 1 - - 10 -
11.08.2018 05:00:00 21,7 21,3 4 2 NW 1020,5 10 0,0
11.08.2018 04:00:00 22,0 22,0 4 2 - - 10 -
11.08.2018 03:00:00 23,0 22,0 2 1 - - 10 -
11.08.2018 02:00:00 23,1 22,2 2 1 N 1021,7 10 -
11.08.2018 01:00:00 24,0 22,0 5 3 ESE - 10 -
11.08.2018 00:00:00 25,0 22,0 5 3 N - 10 -
10.08.2018 23:00:00 25,4 22,2 2 1 - 1021,3 10 0,0
10.08.2018 22:00:00 26,0 23,0 4 2 - - 10 -
10.08.2018 21:00:00 28,0 22,0 8 4 NNW - 10 -
10.08.2018 20:00:00 28,9 21,5 13 7 N 1020,4 10 -
10.08.2018 19:00:00 31,0 21,0 11 6 N - 10 -
10.08.2018 18:00:00 33,0 18,0 11 6 NNW - 10 -
10.08.2018 17:00:00 32,8 19,3 13 7 N 1020,1 10 0,0
10.08.2018 16:00:00 34,0 21,0 8 4 - - 10 -
10.08.2018 15:00:00 33,0 21,0 13 7 NE - 10 -
10.08.2018 14:00:00 32,7 22,4 15 8 NNE 1020,7 10 -
10.08.2018 13:00:00 32,0 22,0 16 9 NE - 10 -
10.08.2018 12:00:00 31,0 22,0 18 10 NE - 10 -
10.08.2018 11:00:00 30,8 22,6 18 10 NNE 1020,7 10 0,0
10.08.2018 10:00:00 29,0 24,0 9 5 N - 10 -
10.08.2018 09:00:00 27,0 22,0 4 2 - - 10 -
10.08.2018 08:00:00 25,5 22,6 4 2 - 1020,2 10 -
10.08.2018 07:00:00 23,0 22,0 2 1 - - 10 -
10.08.2018 06:00:00 - - - - - - - -
10.08.2018 05:00:00 24,3 23,0 2 1 NNE 1018,3 10 0,0
10.08.2018 04:00:00 25,0 23,0 4 2 - - 10 -
10.08.2018 03:00:00 26,0 23,0 8 4 E - 10 -
10.08.2018 02:00:00 25,4 23,2 5 3 ESE 1018,3 10 -
10.08.2018 01:00:00 25,0 23,0 5 3 NE - 10 -
10.08.2018 00:00:00 25,0 23,0 5 3 NNW - 10 -
09.08.2018 23:00:00 26,0 22,7 4 2 NW 1018,9 10 0,0
09.08.2018 22:00:00 27,0 23,0 4 2 - - 10 -
09.08.2018 21:00:00 28,0 22,0 4 2 - - 10 -
09.08.2018 20:00:00 28,8 22,8 8 4 W 1016,9 10 -
09.08.2018 19:00:00 30,0 22,0 9 5 WNW - 10 -
09.08.2018 18:00:00 30,0 22,0 13 7 WNW - 10 -
09.08.2018 17:00:00 30,7 22,2 11 6 W 1016,0 10 0,0
09.08.2018 16:00:00 31,0 22,0 15 8 WNW - 10 -
09.08.2018 15:00:00 31,0 22,0 13 7 WNW - 10 -
09.08.2018 14:00:00 31,8 20,9 8 4 W 1016,4 10 -
09.08.2018 13:00:00 31,0 20,0 11 6 S - 10 -
09.08.2018 12:00:00 - - - - - - - -
09.08.2018 11:00:00 29,3 20,8 9 5 S 1016,8 10 0,0
09.08.2018 10:00:00 28,0 21,0 4 2 - - 10 -
09.08.2018 09:00:00 25,0 21,0 4 2 - - 10 -
09.08.2018 08:00:00 23,2 21,2 4 2 - 1016,6 10 -
09.08.2018 07:00:00 21,0 20,0 4 2 ENE - 10 -
09.08.2018 06:00:00 21,0 21,0 4 2 - - 10 -
09.08.2018 05:00:00 21,6 20,9 4 2 E 1015,4 10 0,0
09.08.2018 04:00:00 22,0 21,0 2 1 - - 10 -
09.08.2018 03:00:00 23,0 22,0 2 1 NNE - 10 -
09.08.2018 02:00:00 23,1 22,5 2 1 - 1015,5 10 -
09.08.2018 01:00:00 24,0 23,0 2 1 - - 10 -
09.08.2018 00:00:00 24,0 23,0 4 2 - - 10 -
08.08.2018 23:00:00 24,9 23,2 4 2 NNE 1015,7 10 0,0

tt = Température de l'air
td = dewpoint
ff = Vitesse du vent
dd = Direction du vent
ppp = reduced air pressure
vv = visibility
rr = Quantités de précipitations

stations d'obs. à proximité